Retour au catalogue

BREEZE-M DEB

LostHEO
NORAD 38620·DEBRIS·🇷🇺 Russia

Lancé Mar 14, 2008 depuis Baikonur Cosmodrome

Loading…

Prochains Passages (prochaines 24 heures)

TLE

PériméSource: Space-Track

Époque: Nov 27, 2012, 19:41 UTC

1 38620U 08011BT  12332.82026443  .00000322  00000-0  14962-1 0  9999
2 38620  49.1570 286.1516 6388571 162.5808 347.8595  3.07355033 11488

Suivez BREEZE-M DEB en temps réel avec AllMySat

Download on the App Store